Flag for Ukraine Weather past 2 weeks in Kharkiv, Ukraine

Now
37 °F

Clear.


Feels Like: 29 °F
Forecast: 49 / 54 °F
Wind: 13 mph from Southwest

Location: Kharkiv

Current Time: Oct 20, 2014 at 8:39:13 AM

Latest Report: Oct 20, 2014 at 6:00 AM


Visibility: 10 mi

Pressure: 30.01 "Hg

Humidity: 60%

Dew point: 25 °F

Location of KharkivLocation

Historic Weather in Kharkiv — Graph

°F

Kharkiv temperature yesterday

Maximum temperature yesterday: 41 °F (at 2:00 PM)
Minimum temperature yesterday: 32 °F (at 6:30 AM)
Average temperature yesterday: 36 °F

Past Weeks' High & Low Weather Summary

 TemperatureHumidityPressure
High72 °F (Oct 14, 2:00 PM)94% (Oct 16, 4:30 PM)30.69 "Hg (Oct 16, 4:30 PM)
Low30 °F (Oct 8, 6:30 AM)24% (Oct 14, 12:30 PM)29.62 "Hg (Oct 16, 6:00 PM)
Average48 °F64%30.17 "Hg
* Reported Oct 5 6:00 AM — Oct 20 6:00 AM, Kharkiv, Weather by CustomWeather, © 2014

Note: Actual official high and low records may vary slightly from our data, if they occured in-between our weather recording intervals... More about our weather records

Advertising

Kharkiv weather history for previous 24 hours

 ConditionsComfort  
Time TempWeatherWind HumidityBarometerVisibility
6:00 AM
Oct 20
37 °FClear.13 mph60%30.01 "Hg10 mi
5:30 AM37 °FClear.13 mph60%30.04 "Hg10 mi
5:00 AM37 °FClear.13 mph60%30.07 "Hg10 mi
4:30 AM37 °FClear.10 mph60%30.07 "Hg10 mi
4:00 AM37 °FClear.8 mph60%30.09 "Hg10 mi
3:30 AM37 °FClear.10 mph56%30.12 "Hg10 mi
3:00 AM37 °FClear.8 mph56%30.12 "Hg10 mi
2:30 AM37 °FClear.8 mph56%30.15 "Hg10 mi
2:00 AM37 °FClear.6 mph56%30.15 "Hg10 mi
1:30 AM36 °FClear.8 mph60%30.18 "Hg10 mi
1:00 AM36 °FClear.6 mph60%30.18 "Hg10 mi
12:30 AM36 °FClear.1 mph60%30.18 "Hg10 mi
12:00 AM36 °FClear.3 mph60%30.18 "Hg10 mi
11:30 PM
Oct 19
36 °FClear.3 mph60%30.21 "Hg10 mi
11:00 PM34 °FClear.6 mph65%30.21 "Hg10 mi
10:30 PM34 °FClear.3 mph65%30.21 "Hg10 mi
10:00 PM34 °FClear.3 mph65%30.24 "Hg10 mi
9:30 PM34 °FClear.1 mph65%30.24 "Hg4 mi
9:00 PM34 °FClear.3 mph60%30.24 "Hg4 mi
8:30 PM34 °FClear.1 mph60%30.24 "Hg3 mi
8:00 PM34 °FClear.3 mph60%30.24 "Hg2 mi
7:30 PM36 °FClear.3 mph60%30.24 "Hg2 mi
7:00 PM37 °FClear.3 mph48%30.24 "Hg10 mi
6:30 PM37 °FSunny.3 mph48%30.27 "Hg10 mi
6:00 PM39 °FSunny.6 mph45%30.27 "Hg10 mi
5:30 PM39 °FSunny.3 mph45%30.27 "Hg10 mi
5:00 PM41 °FSunny.6 mph39%30.27 "Hg10 mi
4:30 PM41 °FSunny.6 mph42%30.27 "Hg10 mi
4:00 PM41 °FSunny.8 mph45%30.27 "Hg10 mi
3:30 PM41 °FPassing clouds.6 mph42%30.27 "HgN/A
3:00 PM41 °FPassing clouds.6 mph42%30.27 "HgN/A
2:30 PM41 °FSunny.6 mph45%30.27 "Hg10 mi
2:00 PM41 °FPassing clouds.6 mph45%30.27 "HgN/A
1:30 PM39 °FPassing clouds.8 mph48%30.27 "HgN/A
1:00 PM39 °FPassing clouds.8 mph48%30.27 "HgN/A
12:30 PM39 °FPassing clouds.8 mph52%30.27 "HgN/A
12:00 PM37 °FPassing clouds.8 mph56%30.27 "HgN/A
11:30 AM36 °FPassing clouds.8 mph60%30.30 "HgN/A
11:00 AM36 °FScattered clouds.8 mph60%30.27 "HgN/A
10:30 AM36 °FPartly sunny.8 mph60%30.27 "HgN/A
10:00 AM34 °FPartly sunny.8 mph65%30.27 "HgN/A
9:30 AM34 °FPartly sunny.10 mph65%30.27 "HgN/A
9:00 AM32 °FPartly sunny.8 mph69%30.27 "HgN/A
8:30 AM32 °FPartly sunny.8 mph69%30.24 "HgN/A
8:00 AM32 °FPassing clouds.8 mph69%30.24 "HgN/A
Weather by CustomWeather, © 2014

See weather overviewHow to use our weather pages